| time (UTC) | temp F | wind direction | speed MPH | gust MPH | rain 1hr in | rain 24hr in | rain mn in | humidity % | barometer mb |
| 20260507131205 | 55 | 317 | 3.0 | 6.0 | 0.00 | 0.33 | 0.18 | 76 | 1015.3 |
| 20260507130727 | 55 | 297 | 2.0 | 7.0 | 0.00 | 0.33 | 0.18 | 79 | 1015.4 |
| 20260507130204 | 55 | 298 | 3.0 | 8.0 | 0.00 | 0.33 | 0.18 | 78 | 1015.3 |
| 20260507124705 | 55 | 269 | 4.0 | 9.0 | 0.00 | 0.33 | 0.18 | 77 | 1015.4 |
| 20260507124205 | 55 | 325 | 5.0 | 9.0 | 0.00 | 0.33 | 0.18 | 78 | 1015.3 |
| 20260507123705 | 55 | 292 | 4.0 | 9.0 | 0.00 | 0.33 | 0.18 | 78 | 1015.3 |
| 20260507123205 | 55 | 315 | 3.0 | 6.0 | 0.00 | 0.33 | 0.18 | 79 | 1015.3 |
| 20260507122706 | 55 | 292 | 4.0 | 6.0 | 0.00 | 0.33 | 0.18 | 78 | 1015.3 |
| 20260507122205 | 54 | 298 | 3.0 | 10.0 | 0.00 | 0.33 | 0.18 | 79 | 1015.2 |
| 20260507121704 | 54 | 316 | 4.0 | 10.0 | 0.00 | 0.34 | 0.18 | 81 | 1015.1 |
| 20260507120705 | 53 | 315 | 5.0 | 9.0 | 0.00 | 0.34 | 0.18 | 79 | 1015.1 |
| 20260507120205 | 54 | 305 | 4.0 | 9.0 | 0.00 | 0.34 | 0.18 | 79 | 1015.0 |
| 20260507115705 | 54 | 327 | 4.0 | 9.0 | 0.00 | 0.34 | 0.18 | 79 | 1015.0 |
| 20260507115205 | 54 | 355 | 4.0 | 9.0 | 0.00 | 0.34 | 0.18 | 78 | 1015.0 |
| 20260507114705 | 54 | 310 | 4.0 | 11.0 | 0.00 | 0.34 | 0.18 | 79 | 1015.0 |
| 20260507114205 | 54 | 291 | 4.0 | 11.0 | 0.00 | 0.34 | 0.18 | 78 | 1015.1 |
| 20260507113705 | 54 | 323 | 5.0 | 11.0 | 0.00 | 0.34 | 0.18 | 79 | 1015.0 |
| 20260507113205 | 55 | 309 | 6.0 | 11.0 | 0.00 | 0.34 | 0.18 | 78 | 1015.0 |
| 20260507112705 | 55 | 309 | 6.0 | 10.0 | 0.00 | 0.34 | 0.18 | 78 | 1015.0 |
| 20260507112205 | 55 | 321 | 5.0 | 10.0 | 0.00 | 0.34 | 0.18 | 77 | 1015.0 |
| 20260507111705 | 55 | 348 | 4.0 | 10.0 | 0.00 | 0.34 | 0.18 | 78 | 1015.0 |
| 20260507111205 | 55 | 328 | 5.0 | 10.0 | 0.00 | 0.34 | 0.18 | 78 | 1015.0 |
| 20260507110204 | 55 | 329 | 4.0 | 11.0 | 0.00 | 0.34 | 0.18 | 77 | 1015.0 |
| 20260507105705 | 55 | 346 | 5.0 | 11.0 | 0.00 | 0.34 | 0.18 | 76 | 1014.9 |
| 20260507105204 | 56 | 309 | 5.0 | 13.0 | 0.00 | 0.34 | 0.18 | 75 | 1014.9 |
| 20260507104705 | 57 | 350 | 5.0 | 13.0 | 0.00 | 0.34 | 0.18 | 81 | 1014.9 |
| 20260507104204 | 55 | 196 | 7.0 | 13.0 | 0.00 | 0.34 | 0.18 | 80 | 1014.9 |
| 20260507103705 | 54 | 306 | 7.0 | 13.0 | 0.00 | 0.34 | 0.18 | 76 | 1015.1 |
| 20260507103205 | 54 | 304 | 6.0 | 12.0 | 0.00 | 0.34 | 0.18 | 79 | 1015.0 |
| 20260507102704 | 54 | 202 | 5.0 | 12.0 | 0.00 | 0.34 | 0.18 | 80 | 1015.0 |
| 20260507102205 | 53 | 294 | 6.0 | 12.0 | 0.00 | 0.34 | 0.18 | 80 | 1015.0 |
| 20260507101704 | 53 | 277 | 6.0 | 12.0 | 0.00 | 0.34 | 0.18 | 81 | 1014.9 |
| 20260507100705 | 53 | 296 | 7.0 | 13.0 | 0.00 | 0.34 | 0.18 | 81 | 1014.9 |
| 20260507100205 | 53 | 271 | 7.0 | 13.0 | 0.00 | 0.34 | 0.18 | 80 | 1014.9 |
| 20260507094705 | 52 | 221 | 6.0 | 13.0 | 0.00 | 0.34 | 0.18 | 84 | 1014.9 |
| 20260507094205 | 52 | 210 | 6.0 | 13.0 | 0.00 | 0.34 | 0.18 | 86 | 1014.9 |
| 20260507093205 | 51 | 294 | 6.0 | 13.0 | 0.00 | 0.34 | 0.18 | 87 | 1014.7 |
| 20260507092705 | 52 | 201 | 6.0 | 13.0 | 0.00 | 0.34 | 0.18 | 86 | 1014.7 |
| 20260507092205 | 52 | 249 | 6.0 | 13.0 | 0.00 | 0.34 | 0.18 | 88 | 1014.7 |
| 20260507091725 | 52 | 210 | 5.0 | 10.0 | 0.00 | 0.34 | 0.18 | 89 | 1014.6 |
| 20260507091222 | 52 | 284 | 5.0 | 8.0 | 0.00 | 0.34 | 0.18 | 91 | 1014.6 |
| 20260507090705 | 51 | 303 | 5.0 | 9.0 | 0.01 | 0.34 | 0.18 | 90 | 1014.5 |
| 20260507090205 | 51 | 278 | 5.0 | 9.0 | 0.01 | 0.34 | 0.18 | 91 | 1014.5 |
| 20260507085705 | 50 | 322 | 4.0 | 9.0 | 0.01 | 0.34 | 0.18 | 91 | 1014.5 |
| 20260507085204 | 50 | 329 | 3.0 | 6.0 | 0.01 | 0.34 | 0.18 | 92 | 1014.5 |
| 20260507084704 | 50 | 316 | 2.0 | 5.0 | 0.01 | 0.34 | 0.18 | 92 | 1014.4 |
| 20260507082704 | 49 | 331 | 2.0 | 5.0 | 0.01 | 0.34 | 0.18 | 92 | 1014.2 |
| 20260507082204 | 49 | 318 | 2.0 | 7.0 | 0.01 | 0.34 | 0.18 | 93 | 1014.3 |
| 20260507081705 | 49 | 317 | 3.0 | 7.0 | 0.01 | 0.34 | 0.18 | 93 | 1014.2 |
| 20260507081205 | 49 | 319 | 3.0 | 8.0 | 0.00 | 0.33 | 0.17 | 93 | 1014.2 |
| 20260507080205 | 48 | 292 | 4.0 | 8.0 | 0.00 | 0.33 | 0.17 | 92 | 1014.1 |
| 20260507075704 | 48 | 291 | 3.0 | 7.0 | 0.00 | 0.33 | 0.17 | 92 | 1014.1 |
| 20260507075204 | 48 | 299 | 3.0 | 7.0 | 0.00 | 0.33 | 0.17 | 92 | 1014.1 |
| 20260507074705 | 49 | 277 | 2.0 | 6.0 | 0.00 | 0.33 | 0.17 | 93 | 1014.0 |
| 20260507074205 | 49 | 310 | 3.0 | 6.0 | 0.00 | 0.33 | 0.17 | 93 | 1013.9 |
| 20260507073704 | 49 | 310 | 3.0 | 7.0 | 0.00 | 0.33 | 0.17 | 93 | 1013.9 |
| 20260507073204 | 49 | 311 | 3.0 | 7.0 | 0.00 | 0.33 | 0.17 | 92 | 1013.8 |
| 20260507072705 | 48 | 311 | 4.0 | 8.0 | 0.01 | 0.33 | 0.17 | 92 | 1013.7 |
| 20260507072204 | 48 | 314 | 4.0 | 8.0 | 0.02 | 0.33 | 0.17 | 92 | 1013.7 |
| 20260507071704 | 48 | 311 | 5.0 | 9.0 | 0.02 | 0.33 | 0.17 | 92 | 1013.6 |
| 20260507071204 | 48 | 287 | 5.0 | 9.0 | 0.02 | 0.33 | 0.17 | 92 | 1013.6 |
| 20260507070704 | 48 | 302 | 4.0 | 9.0 | 0.02 | 0.33 | 0.17 | 93 | 1013.6 |
| 20260507070205 | 48 | 300 | 4.0 | 9.0 | 0.03 | 0.33 | 0.17 | 93 | 1013.5 |
| 20260507065704 | 48 | 306 | 5.0 | 9.0 | 0.03 | 0.33 | 0.17 | 93 | 1013.4 |
| 20260507064704 | 48 | 304 | 5.0 | 9.0 | 0.03 | 0.33 | 0.17 | 93 | 1013.3 |
| 20260507064205 | 48 | 292 | 4.0 | 8.0 | 0.04 | 0.33 | 0.17 | 93 | 1013.3 |
| 20260507063705 | 48 | 296 | 3.0 | 7.0 | 0.04 | 0.33 | 0.17 | 93 | 1013.3 |
| 20260507063204 | 48 | 291 | 3.0 | 7.0 | 0.04 | 0.32 | 0.17 | 93 | 1013.1 |
| 20260507062705 | 48 | 302 | 4.0 | 7.0 | 0.04 | 0.32 | 0.17 | 93 | 1013.1 |
| 20260507062204 | 48 | 269 | 4.0 | 7.0 | 0.03 | 0.31 | 0.16 | 93 | 1013.0 |
| 20260507061704 | 48 | 294 | 4.0 | 7.0 | 0.04 | 0.31 | 0.16 | 93 | 1013.0 |
| 20260507061204 | 48 | 304 | 4.0 | 6.0 | 0.04 | 0.31 | 0.15 | 93 | 1013.0 |
| 20260507060705 | 48 | 328 | 3.0 | 7.0 | 0.04 | 0.31 | 0.15 | 93 | 1012.8 |
| 20260507060204 | 48 | 269 | 3.0 | 7.0 | 0.03 | 0.30 | 0.14 | 92 | 1012.7 |
| 20260507055704 | 48 | 314 | 3.0 | 7.0 | 0.03 | 0.30 | 0.14 | 93 | 1012.8 |
| 20260507055205 | 49 | 296 | 3.0 | 7.0 | 0.04 | 0.30 | 0.14 | 93 | 1012.7 |
| 20260507054721 | 48 | 275 | 4.0 | 9.0 | 0.04 | 0.30 | 0.14 | 93 | 1012.6 |
| 20260507054204 | 48 | 275 | 4.0 | 9.0 | 0.04 | 0.29 | 0.13 | 93 | 1012.6 |
| 20260507053704 | 49 | 250 | 3.0 | 9.0 | 0.04 | 0.29 | 0.13 | 93 | 1012.5 |
| 20260507053204 | 49 | 283 | 4.0 | 7.0 | 0.03 | 0.28 | 0.13 | 93 | 1012.5 |
| 20260507051205 | 48 | 298 | 5.0 | 10.0 | 0.03 | 0.28 | 0.12 | 92 | 1012.3 |
| 20260507050705 | 48 | 292 | 5.0 | 10.0 | 0.02 | 0.27 | 0.11 | 92 | 1012.2 |
| 20260507050205 | 49 | 287 | 5.0 | 10.0 | 0.02 | 0.27 | 0.11 | 92 | 1012.1 |
| 20260507045704 | 49 | 287 | 5.0 | 10.0 | 0.02 | 0.26 | 0.10 | 93 | 1012.0 |
| 20260507044704 | 49 | 213 | 3.0 | 7.0 | 0.02 | 0.26 | 0.10 | 93 | 1011.9 |
| 20260507044205 | 49 | 250 | 4.0 | 7.0 | 0.02 | 0.25 | 0.09 | 93 | 1011.9 |
| 20260507043705 | 49 | 219 | 4.0 | 10.0 | 0.02 | 0.25 | 0.09 | 93 | 1011.8 |
| 20260507043204 | 49 | 221 | 4.0 | 10.0 | 0.02 | 0.25 | 0.09 | 93 | 1011.7 |
| 20260507042704 | 49 | 202 | 4.0 | 10.0 | 0.02 | 0.25 | 0.09 | 93 | 1011.7 |
| 20260507042205 | 49 | 246 | 4.0 | 9.0 | 0.02 | 0.25 | 0.09 | 93 | 1011.6 |
| 20260507041205 | 49 | 261 | 4.0 | 9.0 | 0.02 | 0.24 | 0.09 | 92 | 1011.5 |
| 20260507040705 | 49 | 227 | 3.0 | 8.0 | 0.02 | 0.24 | 0.09 | 93 | 1011.4 |
| 20260507040222 | 49 | 237 | 4.0 | 8.0 | 0.02 | 0.24 | 0.09 | 92 | 1011.4 |
| 20260507035705 | 49 | 248 | 4.0 | 8.0 | 0.02 | 0.24 | 0.09 | 92 | 1011.4 |
| 20260507035206 | 49 | 245 | 4.0 | 10.0 | 0.02 | 0.24 | 0.09 | 92 | 1011.3 |
| 20260507034705 | 49 | 219 | 4.0 | 10.0 | 0.02 | 0.24 | 0.09 | 92 | 1011.3 |
| 20260507034205 | 49 | 273 | 5.0 | 11.0 | 0.02 | 0.24 | 0.08 | 92 | 1011.2 |
| 20260507033705 | 49 | 259 | 5.0 | 11.0 | 0.02 | 0.24 | 0.08 | 92 | 1011.2 |
| 20260507032705 | 49 | 240 | 7.0 | 14.0 | 0.02 | 0.24 | 0.08 | 92 | 1011.0 |
| 20260507032205 | 49 | 239 | 7.0 | 14.0 | 0.02 | 0.24 | 0.08 | 93 | 1011.0 |
| 20260507031705 | 49 | 203 | 6.0 | 14.0 | 0.02 | 0.24 | 0.07 | 92 | 1010.9 |
| 20260507031205 | 49 | 214 | 4.0 | 8.0 | 0.01 | 0.23 | 0.07 | 93 | 1010.8 |
| 20260507030705 | 49 | 204 | 3.0 | 7.0 | 0.01 | 0.23 | 0.07 | 93 | 1010.8 |
| 20260507030205 | 49 | 207 | 3.0 | 7.0 | 0.01 | 0.23 | 0.07 | 93 | 1010.7 |
| 20260507025705 | 49 | 212 | 3.0 | 7.0 | 0.01 | 0.23 | 0.07 | 93 | 1010.7 |
| 20260507025205 | 49 | 214 | 3.0 | 7.0 | 0.01 | 0.23 | 0.07 | 93 | 1010.7 |
| 20260507024704 | 49 | 185 | 2.0 | 6.0 | 0.01 | 0.22 | 0.06 | 93 | 1010.6 |
| 20260507024205 | 49 | 219 | 2.0 | 6.0 | 0.01 | 0.22 | 0.06 | 93 | 1010.6 |
| 20260507023704 | 49 | 197 | 2.0 | 7.0 | 0.02 | 0.22 | 0.06 | 93 | 1010.6 |
| 20260507023231 | 49 | 194 | 2.0 | 7.0 | 0.02 | 0.22 | 0.06 | 93 | 1010.6 |
| 20260507022704 | 49 | 196 | 2.0 | 7.0 | 0.02 | 0.22 | 0.06 | 93 | 1010.6 |
| 20260507021205 | 49 | 204 | 2.0 | 6.0 | 0.03 | 0.22 | 0.06 | 93 | 1010.4 |
| 20260507020705 | 49 | 205 | 2.0 | 5.0 | 0.04 | 0.22 | 0.06 | 93 | 1010.4 |
| 20260507015704 | 49 | 185 | 1.0 | 5.0 | 0.05 | 0.22 | 0.06 | 93 | 1010.3 |
| 20260507015204 | 49 | 185 | 2.0 | 5.0 | 0.04 | 0.21 | 0.06 | 92 | 1010.3 |
| 20260507013705 | 49 | 227 | 1.0 | 3.0 | 0.03 | 0.20 | 0.05 | 92 | 1010.3 |
| 20260507013205 | 49 | 227 | 0.0 | 3.0 | 0.03 | 0.20 | 0.05 | 92 | 1010.2 |
| 20260507012705 | 49 | 227 | 1.0 | 3.0 | 0.03 | 0.20 | 0.05 | 92 | 1010.2 |
| 20260507011705 | 49 | 227 | 0.0 | 2.0 | 0.02 | 0.19 | 0.03 | 92 | 1010.2 |
| 20260507011205 | 49 | 227 | 0.0 | 2.0 | 0.02 | 0.19 | 0.03 | 92 | 1010.2 |
| 20260507010705 | 49 | 227 | 0.0 | 2.0 | 0.01 | 0.18 | 0.02 | 92 | 1010.2 |
| 20260507005705 | 49 | 227 | 0.0 | 2.0 | 0.00 | 0.17 | 0.02 | 92 | 1010.2 |
| 20260507004705 | 49 | 227 | 0.0 | 1.0 | 0.00 | 0.17 | 0.02 | 92 | 1010.2 |
| 20260507004205 | 49 | 227 | 0.0 | 2.0 | 0.00 | 0.17 | 0.02 | 92 | 1010.2 |
| 20260507003204 | 49 | 227 | 1.0 | 3.0 | 0.00 | 0.17 | 0.02 | 92 | 1010.1 |
| 20260507002704 | 49 | 227 | 1.0 | 3.0 | 0.00 | 0.17 | 0.02 | 92 | 1010.1 |
| 20260507001704 | 49 | 227 | 1.0 | 3.0 | 0.00 | 0.17 | 0.02 | 91 | 1010.1 |
| 20260507001204 | 49 | 227 | 1.0 | 5.0 | 0.00 | 0.17 | 0.02 | 91 | 1010.1 |
| 20260507000704 | 49 | 227 | 2.0 | 5.0 | 0.00 | 0.17 | 0.02 | 91 | 1010.1 |
| 20260507000205 | 49 | 227 | 1.0 | 5.0 | 0.00 | 0.17 | 0.02 | 91 | 1010.0 |
| 20260506235704 | 49 | 192 | 1.0 | 3.0 | 0.01 | 0.17 | 0.02 | 92 | 1010.1 |
| 20260506235204 | 50 | 193 | 1.0 | 3.0 | 0.01 | 0.17 | 0.02 | 92 | 1010.1 |
| 20260506234704 | 50 | 193 | 1.0 | 3.0 | 0.01 | 0.17 | 0.02 | 92 | 1010.1 |
| 20260506234204 | 50 | 193 | 1.0 | 3.0 | 0.01 | 0.18 | 0.02 | 92 | 1010.1 |
| 20260506233704 | 50 | 193 | 1.0 | 4.0 | 0.01 | 0.18 | 0.02 | 91 | 1010.2 |
| 20260506233204 | 50 | 193 | 1.0 | 4.0 | 0.01 | 0.18 | 0.02 | 91 | 1010.2 |
| 20260506232732 | 50 | 193 | 1.0 | 4.0 | 0.02 | 0.18 | 0.02 | 91 | 1010.2 |
| 20260506231705 | 50 | 215 | 3.0 | 10.0 | 0.02 | 0.18 | 0.02 | 91 | 1010.2 |
| 20260506231205 | 50 | 209 | 4.0 | 10.0 | 0.02 | 0.18 | 0.02 | 90 | 1010.3 |
| 20260506230705 | 50 | 222 | 4.0 | 10.0 | 0.02 | 0.18 | 0.02 | 90 | 1010.3 |
| 20260506230205 | 50 | 223 | 4.0 | 12.0 | 0.02 | 0.18 | 0.02 | 90 | 1010.2 |
| 20260506225705 | 50 | 238 | 4.0 | 12.0 | 0.01 | 0.17 | 0.01 | 90 | 1010.2 |
| 20260506223706 | 50 | 222 | 2.0 | 6.0 | 0.01 | 0.17 | 0.01 | 91 | 1010.1 |
| 20260506223205 | 50 | 194 | 3.0 | 7.0 | 0.01 | 0.17 | 0.01 | 91 | 1010.1 |
| 20260506222704 | 51 | 192 | 3.0 | 7.0 | 0.00 | 0.17 | 0.00 | 91 | 1010.0 |
| 20260506222204 | 51 | 236 | 3.0 | 7.0 | 0.00 | 0.17 | 0.00 | 91 | 1010.1 |
| 20260506221705 | 51 | 207 | 3.0 | 7.0 | 0.00 | 0.17 | 0.00 | 91 | 1010.0 |
| 20260506221204 | 51 | 224 | 3.0 | 5.0 | 0.00 | 0.17 | 0.00 | 91 | 1009.9 |
| 20260506220205 | 51 | 190 | 2.0 | 5.0 | 0.00 | 0.17 | 0.17 | 92 | 1009.9 |
| 20260506215704 | 51 | 205 | 1.0 | 5.0 | 0.00 | 0.17 | 0.17 | 92 | 1009.8 |
| 20260506215204 | 51 | 198 | 2.0 | 4.0 | 0.01 | 0.17 | 0.17 | 92 | 1009.7 |
| 20260506214704 | 51 | 197 | 1.0 | 4.0 | 0.01 | 0.17 | 0.17 | 92 | 1009.7 |
| 20260506214205 | 51 | 200 | 1.0 | 4.0 | 0.01 | 0.17 | 0.17 | 92 | 1009.7 |
| 20260506213704 | 51 | 201 | 1.0 | 5.0 | 0.02 | 0.17 | 0.17 | 92 | 1009.6 |
| 20260506213204 | 51 | 201 | 2.0 | 5.0 | 0.02 | 0.17 | 0.17 | 92 | 1009.6 |
| 20260506212705 | 51 | 206 | 2.0 | 5.0 | 0.02 | 0.17 | 0.17 | 92 | 1009.6 |
| 20260506212205 | 51 | 205 | 2.0 | 5.0 | 0.02 | 0.17 | 0.17 | 92 | 1009.4 |
| 20260506211704 | 51 | 200 | 1.0 | 5.0 | 0.02 | 0.17 | 0.17 | 92 | 1009.4 |
| 20260506210705 | 51 | 211 | 2.0 | 6.0 | 0.03 | 0.17 | 0.17 | 92 | 1009.3 |
| 20260506205705 | 51 | 184 | 2.0 | 5.0 | 0.03 | 0.16 | 0.16 | 92 | 1009.3 |
| 20260506205205 | 51 | 209 | 2.0 | 6.0 | 0.04 | 0.16 | 0.16 | 92 | 1009.3 |
| 20260506204705 | 51 | 197 | 2.0 | 6.0 | 0.05 | 0.16 | 0.16 | 92 | 1009.3 |
| 20260506204205 | 51 | 215 | 2.0 | 5.0 | 0.05 | 0.15 | 0.15 | 92 | 1009.3 |
| 20260506203704 | 51 | 217 | 1.0 | 5.0 | 0.06 | 0.15 | 0.15 | 92 | 1009.2 |
| 20260506203204 | 51 | 182 | 1.0 | 5.0 | 0.06 | 0.15 | 0.15 | 92 | 1009.3 |
| 20260506202705 | 51 | 193 | 1.0 | 4.0 | 0.06 | 0.15 | 0.15 | 92 | 1009.2 |
| 20260506202205 | 51 | 196 | 1.0 | 6.0 | 0.06 | 0.15 | 0.15 | 92 | 1009.2 |
| 20260506201705 | 51 | 198 | 1.0 | 6.0 | 0.06 | 0.14 | 0.14 | 92 | 1009.2 |
| 20260506201205 | 51 | 200 | 2.0 | 6.0 | 0.06 | 0.13 | 0.13 | 92 | 1009.2 |
| 20260506200705 | 51 | 213 | 2.0 | 6.0 | 0.06 | 0.13 | 0.13 | 92 | 1009.2 |
| 20260506200205 | 52 | 202 | 2.0 | 5.0 | 0.06 | 0.13 | 0.13 | 92 | 1009.2 |
| 20260506195705 | 52 | 211 | 2.0 | 5.0 | 0.06 | 0.12 | 0.12 | 92 | 1009.1 |
| 20260506195205 | 52 | 184 | 2.0 | 5.0 | 0.06 | 0.12 | 0.12 | 92 | 1009.1 |
| 20260506193704 | 52 | 189 | 2.0 | 5.0 | 0.05 | 0.09 | 0.09 | 92 | 1008.8 |
| 20260506193205 | 52 | 208 | 2.0 | 5.0 | 0.05 | 0.09 | 0.09 | 92 | 1008.7 |
| 20260506192705 | 52 | 198 | 2.0 | 7.0 | 0.05 | 0.09 | 0.09 | 91 | 1008.6 |
| 20260506192205 | 52 | 194 | 2.0 | 7.0 | 0.05 | 0.09 | 0.09 | 91 | 1008.5 |
| 20260506191705 | 52 | 209 | 3.0 | 7.0 | 0.04 | 0.08 | 0.08 | 91 | 1008.4 |
| 20260506191205 | 53 | 182 | 3.0 | 7.0 | 0.03 | 0.07 | 0.07 | 91 | 1008.4 |
| 20260506190705 | 53 | 182 | 3.0 | 7.0 | 0.04 | 0.07 | 0.07 | 91 | 1008.3 |
| 20260506190205 | 53 | 184 | 2.0 | 6.0 | 0.03 | 0.06 | 0.06 | 91 | 1008.2 |
| 20260506185204 | 53 | 206 | 3.0 | 7.0 | 0.03 | 0.06 | 0.06 | 91 | 1008.0 |
| 20260506184704 | 53 | 186 | 2.0 | 6.0 | 0.03 | 0.06 | 0.06 | 90 | 1007.9 |
| 20260506183704 | 53 | 213 | 2.0 | 6.0 | 0.02 | 0.05 | 0.05 | 90 | 1007.8 |
| 20260506183204 | 54 | 192 | 2.0 | 6.0 | 0.02 | 0.04 | 0.04 | 90 | 1007.8 |
| 20260506182705 | 54 | 186 | 2.0 | 5.0 | 0.02 | 0.04 | 0.04 | 90 | 1007.7 |
| 20260506181705 | 54 | 188 | 1.0 | 5.0 | 0.02 | 0.04 | 0.04 | 89 | 1007.6 |
| 20260506181205 | 54 | 203 | 1.0 | 6.0 | 0.02 | 0.05 | 0.04 | 89 | 1007.6 |
| 20260506180705 | 54 | 184 | 2.0 | 6.0 | 0.01 | 0.04 | 0.03 | 89 | 1007.6 |
| 20260506180204 | 54 | 175 | 2.0 | 4.0 | 0.01 | 0.05 | 0.03 | 88 | 1007.6 |
| 20260506175204 | 55 | 208 | 1.0 | 4.0 | 0.00 | 0.06 | 0.02 | 88 | 1007.6 |
| 20260506174704 | 55 | 213 | 1.0 | 3.0 | 0.00 | 0.06 | 0.02 | 88 | 1007.5 |
| 20260506174205 | 55 | 219 | 1.0 | 4.0 | 0.00 | 0.06 | 0.02 | 87 | 1007.4 |
| 20260506173704 | 55 | 219 | 1.0 | 6.0 | 0.00 | 0.06 | 0.02 | 87 | 1007.3 |
| 20260506173204 | 55 | 219 | 2.0 | 6.0 | 0.00 | 0.06 | 0.02 | 87 | 1007.4 |
| 20260506172704 | 55 | 221 | 2.0 | 6.0 | 0.00 | 0.06 | 0.02 | 87 | 1007.4 |
| 20260506172205 | 55 | 224 | 2.0 | 5.0 | 0.00 | 0.06 | 0.02 | 87 | 1007.4 |
| 20260506171204 | 55 | 226 | 1.0 | 5.0 | 0.00 | 0.06 | 0.02 | 87 | 1007.3 |
| 20260506170705 | 55 | 226 | 2.0 | 5.0 | 0.00 | 0.06 | 0.02 | 87 | 1007.3 |
| 20260506165205 | 55 | 219 | 1.0 | 5.0 | 0.00 | 0.06 | 0.02 | 87 | 1007.2 |
| 20260506164204 | 55 | 225 | 2.0 | 7.0 | 0.00 | 0.06 | 0.02 | 86 | 1007.3 |
| 20260506163704 | 56 | 288 | 3.0 | 8.0 | 0.00 | 0.06 | 0.02 | 86 | 1007.3 |
| 20260506163204 | 55 | 275 | 4.0 | 8.0 | 0.00 | 0.06 | 0.02 | 85 | 1007.3 |
| 20260506162705 | 56 | 234 | 3.0 | 8.0 | 0.00 | 0.06 | 0.02 | 84 | 1007.3 |
| 20260506162220 | 56 | 213 | 3.0 | 8.0 | 0.00 | 0.06 | 0.02 | 84 | 1007.3 |
| 20260506161705 | 56 | 233 | 3.0 | 11.0 | 0.00 | 0.06 | 0.02 | 84 | 1007.3 |
| 20260506161207 | 56 | 237 | 4.0 | 11.0 | 0.00 | 0.06 | 0.02 | 84 | 1007.2 |
| 20260506160705 | 56 | 224 | 4.0 | 11.0 | 0.00 | 0.06 | 0.02 | 84 | 1007.2 |
| 20260506160232 | 56 | 245 | 3.0 | 7.0 | 0.00 | 0.06 | 0.02 | 85 | 1007.1 |
| 20260506155732 | 56 | 281 | 3.0 | 7.0 | 0.00 | 0.06 | 0.02 | 85 | 1007.1 |
| 20260506155204 | 56 | 218 | 3.0 | 7.0 | 0.00 | 0.06 | 0.02 | 85 | 1007.1 |
| 20260506154704 | 56 | 229 | 3.0 | 6.0 | 0.00 | 0.06 | 0.02 | 85 | 1007.1 |
| 20260506154205 | 56 | 227 | 3.0 | 6.0 | 0.00 | 0.06 | 0.02 | 85 | 1007.0 |
| 20260506153204 | 56 | 221 | 3.0 | 8.0 | 0.00 | 0.06 | 0.02 | 86 | 1007.0 |
| 20260506152704 | 56 | 243 | 4.0 | 8.0 | 0.00 | 0.06 | 0.02 | 85 | 1007.0 |
| 20260506152205 | 56 | 298 | 4.0 | 8.0 | 0.00 | 0.07 | 0.02 | 84 | 1006.9 |
| 20260506151704 | 56 | 281 | 4.0 | 11.0 | 0.00 | 0.07 | 0.02 | 85 | 1006.9 |
| 20260506151204 | 56 | 275 | 5.0 | 11.0 | 0.00 | 0.08 | 0.02 | 85 | 1006.9 |
| 20260506150705 | 56 | 221 | 5.0 | 11.0 | 0.00 | 0.08 | 0.02 | 84 | 1006.9 |
| 20260506150204 | 56 | 289 | 5.0 | 12.0 | 0.00 | 0.08 | 0.02 | 85 | 1006.8 |
| 20260506145704 | 56 | 285 | 5.0 | 13.0 | 0.00 | 0.08 | 0.02 | 85 | 1006.7 |
| 20260506145204 | 56 | 291 | 6.0 | 14.0 | 0.00 | 0.08 | 0.02 | 86 | 1006.6 |
| 20260506144707 | 56 | 330 | 7.0 | 16.0 | 0.01 | 0.08 | 0.02 | 86 | 1006.5 |
| 20260506144204 | 56 | 288 | 8.0 | 16.0 | 0.01 | 0.08 | 0.02 | 84 | 1006.5 |
| 20260506143704 | 56 | 326 | 9.0 | 16.0 | 0.01 | 0.08 | 0.02 | 84 | 1006.4 |
| 20260506143204 | 56 | 271 | 9.0 | 14.0 | 0.01 | 0.08 | 0.02 | 83 | 1006.5 |
| 20260506142704 | 56 | 290 | 8.0 | 23.0 | 0.01 | 0.09 | 0.02 | 82 | 1006.5 |
| 20260506142204 | 56 | 270 | 9.0 | 23.0 | 0.01 | 0.09 | 0.02 | 82 | 1006.6 |
| 20260506141705 | 57 | 284 | 11.0 | 23.0 | 0.01 | 0.09 | 0.02 | 81 | 1006.6 |
| 20260506141204 | 58 | 304 | 11.0 | 20.0 | 0.01 | 0.10 | 0.02 | 78 | 1006.5 |
| 20260506140705 | 61 | 281 | 7.0 | 19.0 | 0.01 | 0.11 | 0.02 | 77 | 1006.5 |
| 20260506140204 | 62 | 302 | 3.0 | 6.0 | 0.01 | 0.12 | 0.02 | 78 | 1006.1 |
| 20260506135705 | 62 | 267 | 2.0 | 6.0 | 0.01 | 0.13 | 0.02 | 77 | 1006.0 |
| 20260506134704 | 62 | 355 | 3.0 | 4.0 | 0.00 | 0.13 | 0.02 | 75 | 1005.9 |
| 20260506134205 | 62 | 355 | 2.0 | 5.0 | 0.00 | 0.15 | 0.02 | 75 | 1005.9 |
| 20260506133704 | 63 | 355 | 2.0 | 5.0 | 0.00 | 0.16 | 0.02 | 74 | 1005.8 |
| 20260506132704 | 63 | 50 | 2.0 | 3.0 | 0.00 | 0.17 | 0.02 | 73 | 1005.8 |
| 20260506132205 | 63 | 74 | 2.0 | 3.0 | 0.00 | 0.18 | 0.02 | 74 | 1005.6 |
| 20260506131705 | 63 | 74 | 2.0 | 3.0 | 0.01 | 0.19 | 0.02 | 75 | 1005.6 |